TimeEST,TemperatureF,Dew PointF,Humidity,Sea Level PressureIn,VisibilityMPH,Wind Direction,Wind SpeedMPH,Gust SpeedMPH,PrecipitationIn,Events,Conditions,WindDirDegrees,DateUTC
12:35 AM,17.6,6.8,63,30.21,10.0,ESE,5.8,-,N/A,,Overcast,120,2013-01-19 05:35:00
12:55 AM,17.6,6.8,63,30.20,10.0,SE,6.9,-,N/A,,Overcast,130,2013-01-19 05:55:00
1:15 AM,17.6,6.8,63,30.19,10.0,SE,5.8,-,N/A,,Overcast,130,2013-01-19 06:15:00
1:35 AM,17.6,6.8,63,30.18,10.0,ESE,9.2,-,N/A,,Overcast,120,2013-01-19 06:35:00
1:55 AM,17.6,6.8,63,30.18,10.0,ESE,8.1,-,N/A,,Overcast,120,2013-01-19 06:55:00
2:15 AM,19.4,5.0,54,30.18,10.0,SE,9.2,-,N/A,,Overcast,130,2013-01-19 07:15:00
2:35 AM,19.4,8.6,63,30.17,10.0,ESE,6.9,-,N/A,,Overcast,110,2013-01-19 07:35:00
3:15 AM,19.4,12.2,74,30.14,5.0,ESE,6.9,-,N/A,,Overcast,110,2013-01-19 08:15:00
3:35 AM,19.4,15.8,86,30.13,10.0,ESE,9.2,-,N/A,,Overcast,110,2013-01-19 08:35:00
3:55 AM,19.4,14.0,80,30.10,10.0,ESE,10.4,-,N/A,,Overcast,110,2013-01-19 08:55:00
4:15 AM,19.4,14.0,80,30.09,10.0,ESE,12.7,-,N/A,,Overcast,120,2013-01-19 09:15:00
4:35 AM,21.2,12.2,68,30.07,10.0,ESE,12.7,-,N/A,,Overcast,120,2013-01-19 09:35:00
4:55 AM,21.2,14.0,74,30.05,10.0,SE,13.8,-,N/A,,Overcast,130,2013-01-19 09:55:00
5:15 AM,23.0,15.8,74,30.05,10.0,ESE,5.8,-,N/A,,Overcast,120,2013-01-19 10:15:00
5:55 AM,23.0,12.2,63,30.04,10.0,ESE,12.7,-,N/A,,Overcast,120,2013-01-19 10:55:00
6:15 AM,24.8,12.2,59,30.05,10.0,ESE,8.1,-,N/A,,Overcast,120,2013-01-19 11:15:00
6:35 AM,24.8,12.2,59,30.04,10.0,ENE,3.5,-,N/A,,Overcast,60,2013-01-19 11:35:00
6:55 AM,26.6,12.2,55,30.04,10.0,ESE,6.9,-,N/A,,Overcast,110,2013-01-19 11:55:00
7:15 AM,24.8,15.8,69,30.03,10.0,NE,4.6,-,N/A,,Overcast,40,2013-01-19 12:15:00
7:55 AM,24.8,15.8,69,30.03,10.0,Calm,Calm,-,N/A,,Overcast,0,2013-01-19 12:55:00
8:15 AM,24.8,17.6,74,30.03,10.0,East,4.6,-,N/A,,Overcast,100,2013-01-19 13:15:00
9:15 AM,32.0,14.0,48,30.03,10.0,East,8.1,-,N/A,,Overcast,90,2013-01-19 14:15:00
9:35 AM,33.8,14.0,44,30.03,10.0,SSE,6.9,-,N/A,,Overcast,150,2013-01-19 14:35:00
10:15 AM,35.6,14.0,41,30.02,10.0,East,4.6,-,N/A,,Overcast,90,2013-01-19 15:15:00
10:35 AM,35.6,12.2,38,30.01,10.0,South,4.6,-,N/A,,Overcast,190,2013-01-19 15:35:00
10:55 AM,37.4,12.2,36,30.01,10.0,South,6.9,19.6,N/A,,Overcast,170,2013-01-19 15:55:00
11:15 AM,37.4,12.2,36,29.99,10.0,SSW,13.8,20.7,N/A,,Overcast,210,2013-01-19 16:15:00
11:35 AM,37.4,14.0,38,29.97,10.0,SW,5.8,-,N/A,,Overcast,220,2013-01-19 16:35:00
11:55 AM,37.4,14.0,38,29.96,10.0,WSW,8.1,-,N/A,,Overcast,250,2013-01-19 16:55:00
12:15 PM,39.2,15.8,39,29.95,10.0,SW,8.1,16.1,N/A,,Overcast,230,2013-01-19 17:15:00
12:35 PM,39.2,14.0,36,29.94,10.0,SSW,6.9,18.4,N/A,,Overcast,200,2013-01-19 17:35:00
12:55 PM,39.2,15.8,39,29.94,10.0,SSW,10.4,16.1,N/A,,Overcast,210,2013-01-19 17:55:00
1:15 PM,39.2,15.8,39,29.94,10.0,SSW,10.4,19.6,N/A,,Overcast,210,2013-01-19 18:15:00
1:55 PM,39.2,15.8,39,29.94,10.0,SW,4.6,-,N/A,,Overcast,220,2013-01-19 18:55:00
2:15 PM,39.2,15.8,39,29.94,10.0,SSW,9.2,20.7,N/A,,Overcast,200,2013-01-19 19:15:00
2:35 PM,39.2,17.6,42,29.94,10.0,ENE,3.5,-,N/A,,Overcast,70,2013-01-19 19:35:00
2:55 PM,39.2,17.6,42,29.94,10.0,SE,4.6,-,N/A,,Overcast,140,2013-01-19 19:55:00
3:15 PM,39.2,17.6,42,29.93,10.0,SSW,6.9,-,N/A,,Overcast,210,2013-01-19 20:15:00
3:35 PM,41.0,17.6,39,29.93,10.0,SSW,5.8,-,N/A,,Overcast,210,2013-01-19 20:35:00
3:55 PM,39.2,17.6,42,29.93,10.0,Calm,Calm,-,N/A,,Overcast,0,2013-01-19 20:55:00
4:15 PM,41.0,17.6,39,29.93,10.0,WSW,3.5,-,N/A,,Overcast,250,2013-01-19 21:15:00
4:55 PM,41.0,15.8,36,29.92,10.0,West,3.5,-,N/A,,Overcast,280,2013-01-19 21:55:00
5:15 PM,39.2,19.4,45,29.91,10.0,NE,5.8,-,N/A,,Overcast,50,2013-01-19 22:15:00
5:35 PM,39.2,19.4,45,29.91,10.0,Calm,Calm,-,N/A,,Overcast,0,2013-01-19 22:35:00
5:55 PM,37.4,17.6,45,29.91,10.0,ESE,3.5,-,N/A,,Overcast,110,2013-01-19 22:55:00
6:15 PM,37.4,21.2,52,29.90,10.0,ESE,3.5,-,N/A,,Overcast,110,2013-01-19 23:15:00
6:36 PM,35.6,23.0,60,29.90,10.0,SSE,4.6,-,N/A,,Overcast,160,2013-01-19 23:36:00
7:15 PM,35.6,21.2,56,29.89,10.0,SE,4.6,-,N/A,,Overcast,130,2013-01-20 00:15:00
7:35 PM,35.6,21.2,56,29.88,10.0,SE,4.6,-,N/A,,Overcast,130,2013-01-20 00:35:00
7:55 PM,37.4,21.2,52,29.87,10.0,SSE,3.5,-,N/A,,Overcast,150,2013-01-20 00:55:00
8:15 PM,37.4,21.2,52,29.86,10.0,SE,5.8,-,N/A,,Overcast,140,2013-01-20 01:15:00
8:35 PM,37.4,21.2,52,29.86,10.0,Calm,Calm,-,N/A,,Overcast,0,2013-01-20 01:35:00
8:55 PM,37.4,19.4,48,29.84,10.0,SE,5.8,-,N/A,,Overcast,130,2013-01-20 01:55:00
9:35 PM,37.4,21.2,52,29.82,10.0,Calm,Calm,-,N/A,,Overcast,0,2013-01-20 02:35:00
9:55 PM,37.4,21.2,52,29.80,10.0,South,5.8,-,N/A,,Mostly Cloudy,180,2013-01-20 02:55:00
10:15 PM,37.4,21.2,52,29.79,10.0,SSE,5.8,-,N/A,,Scattered Clouds,160,2013-01-20 03:15:00
10:35 PM,39.2,19.4,45,29.78,10.0,South,6.9,-,N/A,,Mostly Cloudy,170,2013-01-20 03:35:00
10:55 PM,41.0,19.4,42,29.78,10.0,SSW,3.5,-,N/A,,Overcast,200,2013-01-20 03:55:00
11:15 PM,41.0,19.4,42,29.77,10.0,SE,8.1,-,N/A,,Overcast,140,2013-01-20 04:15:00
11:35 PM,39.2,21.2,49,29.76,10.0,ESE,8.1,-,N/A,,Overcast,120,2013-01-20 04:35:00